ADF AIRWAYS. MIAMI FLORIDA’S PREMIER FLIGHT TRAINING ACADEMY

Thank you for visiting ADF Airways. Located in Miami, Florida, ADF airways is a premier Flight Training school dedicated to helping those who want to learn how to fly. Whether you are a new student seeking a license to fly for fun, or an advanced pilot looking to get your ATP rating, we’re confident ADF Airways will exceed your expectations!

 

OVER 3 DECADES OF EXPERIENCE WITH A PERSONAL TOUCH

ADF Airways has been in the business of helping pilots since 1986. We take an individual approach to flight training, and can tailor your experience at whatever pace you choose. Our instructors have a combined experience of well over 40 years in the business, and we’re sure we will be able to help you live your dream. ADF Airways is :

  • An FAA-approved Part 141 Flight Academy (Part 61 training available)
  • Approved by the Department of Veterans Affairs (VA)
  • An experiecnced leader in helping students attatin a full range of ratings from Private Pilot to Airline Transport Pilot with Jet Transition training.
  • A strong partner that assists  foreign students to gain FAA ratings and student visas.
  • A quality centered organization that provides experienced Flight Instructors
  • A large provider of a wide range of single and multi-engine aircraft.

ADF Airways has been providing quality Flight instruction for over 3 decades. Established in 1986, we are located at the Kendall-Tamiami Executive Airport (TMB) in Miami, Florida. We have grown into an institution of more than 200 active students. ADF Airways is dedicated to giving each person the personal attention he or she deserves. Our experienced flight instructor staff truly enjoys teaching and giving their undivided attention to the wants and needs of each student. They here just to to help you succeed!

 

 

Facebook By Weblizar Powered By Weblizar

METARS

KTMB 260553Z 31005KT 10SM CLR 26/26 A2994 RMK AO2 SLP138 60001 T02610256 10278 20261 53003

KOPF 260553Z AUTO 35005KT 10SM CLR 28/26 A2995 RMK AO2 LTG DSNT SE SLP142 T02780256 10300 20278 53001

KFLL 260553Z 06005KT 10SM FEW023 BKN220 29/26 A2993 RMK AO2 SLP135 60008 T02890261 10289 20272 55002

TAF INFORMATION

TAF KTMB 260545Z 2606/2706 06005KT P6SM VCSH FEW025 SCT050 FM261500 07010KT P6SM VCTS SCT030CB BKN050 FM270000 07005KT P6SM VCSH FEW025 SCT050

TAF KOPF 260545Z 2606/2706 07005KT P6SM VCSH FEW025 SCT050 FM261500 07010KT P6SM VCTS SCT030CB BKN050 FM270000 07005KT P6SM VCSH FEW025 SCT050

TAF KFLL 260545Z 2606/2706 06007KT P6SM VCSH FEW025 SCT050 FM261500 07010KT P6SM VCTS SCT030CB BKN050 FM270000 07007KT P6SM VCSH FEW025 SCT050

SO MANY GRADUATES, SO MANY DREAMS MADE REALITY

ADF Airways has graduated many students over its 30 plus years in the business. The above gallery shows just a sample of our most recent graduates. Click here to see our gallery of graduates page.

Our Programs and Services

ADF Airways offers a variety of programs to suit your needs. Click on any of the links below for more information

Private Pilot Course

Foreign License Conversion

Instrument Rating Course

Jet Transition Program

Commercial Pilot Course

CFI Course

FAA Testing Center

PARTNERS